This demonstration page uses our WeatherBlox Daily Observations layout. Learn more.

Left ArrowRight Arrow

39.08367, -84.50855

Hourly Observations for November 29, 2015

Temp ( °F °C ) Dew Point ( °F °C ) Humidity (%) Winds ( mph kmh ) Pressure ( in mb ) Visibility ( mi km ) Precip ( " mm )
12:53 am 00:53 Cloudy with Light Rain 42 5.6 42 5.6 100 100 NNE 6 9 30.25 1024 10 16 0.02 0.51
1:26 am 01:26 Cloudy with Light Rain 43 6 41 5 93 93 N 7 11 30.24 1024 7 11 0.00 0.00
1:53 am 01:53 Cloudy with Light Rain 42 5.6 41 5 96 96 NNE 8 13 30.24 1024 5 8 0.03 0.76
2:05 am 02:05 Cloudy with Light Rain 42 5.6 41 5 96 96 N 8 13 30.24 1024 5 8 0.00 0.03
2:51 am 02:51 Cloudy with Light Rain 41 5 41 5 100 100 NNE 6 9 30.24 1024 5 8 0.01 0.25
2:53 am 02:53 Cloudy with Light Rain 41 5 41 5 100 100 NNE 7 11 30.26 1025 5 8 0.01 0.25
3:10 am 03:10 Cloudy with Heavy Rain 41 5 39 4 93 93 NNE 8 13 30.24 1024 2 3 0.00 0.00
3:33 am 03:33 Cloudy with Light Rain 41 5 40 4.4 96 96 NNE 8 13 30.24 1024 4 6 0.06 1.52
3:53 am 03:53 Cloudy with Light Rain 41 5 41 5 100 100 N 5 7 30.26 1025 5 8 0.07 1.78
4:22 am 04:22 Cloudy with Light Rain 41 5 39 4 93 93 NNE 7 11 30.24 1024 8 13 0.00 0.00
4:53 am 04:53 Cloudy with Rain 41 5 40 4.4 96 96 NNE 8 13 30.25 1024 5 8 0.03 0.76
5:33 am 05:33 Cloudy with Light Rain 41 5 40 4.4 96 96 NNE 6 9 30.24 1024 8 13 0.02 0.51
5:53 am 05:53 Cloudy 41 5 40 4.4 96 96 N 6 9 30.26 1025 10 16 0.02 0.51
6:39 am 06:39 Cloudy with Light Rain 41 5 39 3.9 93 93 NNE 9 15 30.24 1024 10 16 0.01 0.25
6:53 am 06:53 Cloudy with Light Rain 41 5 40 4.4 96 96 NNE 8 13 30.27 1025 10 16 0.01 0.25
7:53 am 07:53 Cloudy 41 5 39 3.9 93 93 NNE 8 13 30.28 1025 10 16 0.00 0.03
8:18 am 08:18 Cloudy 41 5 39 4 93 93 NE 9 15 30.27 1025 9 14 0.00 0.00
8:53 am 08:53 Cloudy 41 5 39 3.9 93 93 NNE 12 19 30.30 1026 9 14 0.00 0.00
9:53 am 09:53 Cloudy 41 5 39 3.9 93 93 NNE 9 15 30.32 1027 10 16 0.00 0.00
10:00 am 10:00 Cloudy 41 5 39 4 93 93 NE 10 17 30.33 1027 10 16 0.00 0.00
10:53 am 10:53 Cloudy 42 5.6 38 3.3 85 85 NE 10 17 30.32 1027 10 16 0.00 0.00
11:53 am 11:53 Cloudy 43 6.1 39 3.9 86 86 NE 10 17 30.30 1026 10 16 0.00 0.00
12:53 pm 12:53 Partly Cloudy 45 7.2 40 4.4 83 83 NE 9 15 30.26 1025 10 16 0.00 0.00
1:53 pm 13:53 Mostly Sunny 45 7.2 38 3.3 77 77 NE 8 13 30.24 1024 10 16 0.00 0.00
2:53 pm 14:53 Sunny 45 7.2 38 3.3 77 77 NE 9 15 30.23 1024 10 16 0.00 0.00
3:53 pm 15:53 Sunny 44 6.7 37 2.8 76 76 NE 10 17 30.22 1023 10 16 0.00 0.00
4:53 pm 16:53 Sunny 43 6.1 38 3.3 82 82 NNE 7 11 30.24 1024 10 16 0.00 0.00
5:53 pm 17:53 Clear 43 6.1 38 3.3 82 82 NE 8 13 30.23 1024 10 16 0.00 0.00
6:53 pm 18:53 Clear 43 6.1 38 3.3 82 82 NNE 8 13 30.25 1024 10 16 0.00 0.00
7:53 pm 19:53 Clear 42 5.6 37 2.8 82 82 NE 8 13 30.24 1024 10 16 0.00 0.00
8:53 pm 20:53 Clear 42 5.6 36 2.2 79 79 NNE 7 11 30.25 1025 10 16 0.00 0.00
9:53 pm 21:53 Clear 42 5.6 36 2.2 79 79 NE 9 15 30.24 1024 10 16 0.00 0.00
10:53 pm 22:53 Clear 41 5 35 1.7 79 79 NE 8 13 30.23 1024 10 16 0.00 0.00
11:53 pm 23:53 Clear 41 5 34 1.1 76 76 NE 6 9 30.24 1024 10 16 0.00 0.00

Powered by AerisWeather